User: anonymous   Login
Location: Irma
(52.9170°N, 111.2330°W)
Time: 10:59:58
(UTC-06:00)
Language:

Meteor 1-24 Rocket - Orbit

View from above orbital plane
View from above orbital plane
View from above satellite
View from above satellite

Ground track
Ground track

The orbit data is extracted from the following two-line orbital elements,

1 08800U 76032B   16182.54321636 -.00000067  00000-0 -43709-4 0  9994
2 08800  81.2490 199.4186 0095078 100.7618 260.4274 14.10069171 68630
Epoch (UTC): 30 June 2016 13:02:13
Eccentricity: 0.0095078
inclination: 81.2490°
perigee height: 790 km
apogee height: 928 km
right ascension of ascending node: 199.4186°
argument of perigee: 100.7618°
revolutions per day: 14.10069171
mean anomaly at epoch: 260.4274°
orbit number at epoch: 6863

The dashed part of the orbit path shows where the satellite is in the earth's shadow,  

DLR